Springfield, VT

2:29 AM EST on November 24, 2017 (GMT -0500)
Hartness State

Weather History for KVSF - January, 2015

Change the Weather History Date:

Wednesday, January 28, 2015

  Actual Average Record
Temperature  
Mean Temperature 10 °F 20 °F  
Max Temperature 22 °F 30 °F 54 °F (2002)
Min Temperature -2 °F 10 °F -18 °F (2005)
Degree Days  
Heating Degree Days 55 45  
Month to date heating degree days 1373 1275  
Since 1 July heating degree days 3845 4138  
Cooling Degree Days 0 0  
Month to date cooling degree days 0 0  
Year to date cooling degree days 0 0  
Moisture  
Dew Point -1 °F    
Average Humidity 63    
Maximum Humidity 87    
Minimum Humidity 39    
Precipitation  
Precipitation 0.04 in 0.09 in 0.78 in (2009)
Month to date precipitation 2.46 2.66  
Year to date precipitation 2.46 2.66  
Sea Level Pressure  
Sea Level Pressure 30.06 in    
Wind  
Wind Speed 8 mph (NW)    
Max Wind Speed 20 mph    
Max Gust Speed 29 mph    
Visibility 8 miles    
Events Snow    
T = Trace of Precipitation, MM = Missing Value Source: NWS Daily Summary

Daily Weather History Graph

Daily Weather History Graph

Search for Another Location

Airport or City:

Trip Planner

Search our weather history database for the weather conditions in past years. The results will help you decide how hot, cold, wet, or windy it might be!

Date:

Astronomy

Jan. 28, 2015 Rise Set
Actual Time 7:10 AM EST 4:56 PM EST
Civil Twilight 6:39 AM EST 5:26 PM EST
Nautical Twilight 6:05 AM EST 6:01 PM EST
Astronomical Twilight 5:31 AM EST 6:35 PM EST
Moon 11:59 AM EST (1/28) 1:37 AM EST (1/28)
Length of Visible Light 10h 47m
Length of Day
9h 46m
Waxing Gibbous, 66% of the Moon is Illuminated
Jan 28
Waxing Gibbous
Feb 3
Full
Feb 11
Last Quarter
Feb 18
New
Feb 25
First Quarter

Hourly Weather History & Observations

Time (EST) Temp. Windchill Dew Point Humidity Pressure Visibility Wind Dir Wind Speed Gust Speed Precip Events Conditions
12:54 AM 10.9 °F -4.7 °F -2.0 °F 56% 29.82 in 10.0 mi North 13.8 mph 21.9 mph 0.00 in   Overcast
1:54 AM 10.9 °F -2.6 °F -2.0 °F 56% 29.83 in 10.0 mi NNW 10.4 mph 16.1 mph 0.00 in   Overcast
2:54 AM 10.9 °F -3.4 °F -2.0 °F 56% 29.85 in 10.0 mi North 11.5 mph 24.2 mph N/A   Overcast
3:54 AM 10.0 °F -4.5 °F -2.0 °F 58% 29.87 in 10.0 mi NNW 11.5 mph 19.6 mph N/A   Overcast
4:54 AM 10.0 °F -2.9 °F -2.9 °F 56% 29.91 in 10.0 mi North 9.2 mph 19.6 mph N/A   Mostly Cloudy
5:54 AM 10.9 °F -2.6 °F -2.0 °F 56% 29.94 in 10.0 mi NNW 10.4 mph 17.3 mph N/A   Overcast
6:54 AM 10.9 °F 0.2 °F -2.0 °F 56% 29.97 in 10.0 mi NW 6.9 mph - N/A   Overcast
7:54 AM 10.9 °F -3.4 °F -0.9 °F 59% 30.01 in 10.0 mi NNW 11.5 mph 18.4 mph N/A   Overcast
8:54 AM 12.9 °F -0.2 °F -0.9 °F 54% 30.04 in 10.0 mi NNW 10.4 mph 17.3 mph N/A   Overcast
9:54 AM 14.0 °F 1.2 °F -0.0 °F 54% 30.05 in 10.0 mi NNE 10.4 mph - N/A   Overcast
10:54 AM 16.0 °F 6.3 °F 1.9 °F 54% 30.06 in 10.0 mi NW 6.9 mph 16.1 mph N/A   Clear
11:26 AM 15.1 °F 4.2 °F 3.9 °F 61% 30.02 in 0.5 mi West 8.1 mph - N/A   Haze
11:35 AM 16.0 °F 6.3 °F 3.9 °F 59% 30.02 in 0.2 mi WNW 6.9 mph - 0.03 in Snow Heavy Snow
11:41 AM 17.1 °F 7.6 °F 3.0 °F 54% 30.02 in 1.2 mi Variable 6.9 mph - 0.04 in   Haze
11:43 AM 17.1 °F 8.7 °F 3.0 °F 54% 30.02 in 3.0 mi Variable 5.8 mph - 0.04 in   Haze
11:54 AM 17.1 °F 7.6 °F 3.0 °F 54% 30.06 in 10.0 mi WNW 6.9 mph - 0.04 in   Mostly Cloudy
12:54 PM 19.9 °F 13.4 °F 3.9 °F 50% 30.05 in 10.0 mi Variable 4.6 mph - N/A   Scattered Clouds
1:54 PM 21.0 °F 10.6 °F 3.9 °F 48% 30.06 in 10.0 mi WNW 9.2 mph - N/A   Scattered Clouds
2:54 PM 21.9 °F 13.4 °F 1.0 °F 40% 30.08 in 10.0 mi Variable 6.9 mph - N/A   Clear
3:54 PM 19.9 °F 7.3 °F -0.9 °F 40% 30.12 in 10.0 mi West 12.7 mph 18.4 mph N/A   Clear
4:54 PM 19.0 °F 6.8 °F -2.9 °F 38% 30.15 in 10.0 mi WNW 11.5 mph - N/A   Clear
5:54 PM 17.1 °F 7.6 °F -4.0 °F 39% 30.19 in 10.0 mi NW 6.9 mph - N/A   Clear
6:54 PM 15.1 °F 7.7 °F -5.1 °F 41% 30.22 in 10.0 mi WNW 4.6 mph - N/A   Clear
7:54 PM 8.1 °F - -2.9 °F 61% 30.25 in 10.0 mi Calm Calm - N/A   Clear
8:54 PM 5.0 °F -2.1 °F -2.9 °F 70% 30.27 in 8.0 mi West 3.5 mph - N/A   Clear
9:54 PM 1.9 °F - -2.9 °F 80% 30.29 in 8.0 mi Calm Calm - N/A   Clear
10:54 PM -0.0 °F - -5.1 °F 79% 30.32 in 10.0 mi Calm Calm - N/A   Clear
11:54 PM -0.9 °F - -6.0 °F 79% 30.33 in 8.0 mi Calm Calm - N/A   Clear